Terminal Aerodrome Forecast
Issued by NWS Rapid City, SD

Home | Current Version | Previous Version | Graphics & Text | Print | Product List | Glossary On
Versions: 1 2 3 4 5 6 7 8 9 10 11 12 13 14 15 16 17 18 19
000
FTUS43 KUNR 161120
TAFRAP
TAF
KRAP 161120Z 1612/1712 15007KT P6SM BKN150 WS020/25035KT
     FM161900 23014G24KT P6SM SCT150
     FM162300 24007KT P6SM BKN150
     FM170500 34010KT P6SM OVC100=

USA.gov is the U.S. government's official web portal to all federal, state and local government web resources and services.